Kezdőlap
METAR-TAF:

METAR-TAF

Repülőterek :

Municipal_Airport

Cherokee, Iowa, Amerikai Egyesült Államok

földrajzi szélesség: 42-43-54N, földrajzi hosszúság: 095-33-21W, magasság: 374 m

Jelenlegi meteorológiai megfigyelések

A jelentés 24 perccel ezelõtt készült, 11:15 UTC
Kelet-északkeleti szél 5 kt
Hőmérséklet 13°C
Páratartalom 54%
Légköri nyomás 1015 hPa
Látótávolság: 16.1 km
Derült ég

METAR: KCKP 171115Z AUTO 07005KT 10SM CLR 13/04 A2996 RMK AO2 T01260037

Idő: 06:39 (11:39 UTC)


TAF: hiányzik

Meteorológiai megfigyelések és előrejelzések több, mint 4000 repülőtéren (METAR és TAF jelentéseket).

A térképen piros és sárga pontok jelzik az elérhető meteorológiai állomásokat.

Mozgassa az egeret a pont fölött, hogy megjelenjen az állomás neve.

Azután kattintson az időjárási megfigyelések és előrejelzések megtekintéséhez.

A térkép megváltoztatása: kattintson a fekete keresztel jelölt zöld gombra ráközelítéshez, a vonallal jelölt zöld gombra távolításhoz, vagy a zöld nyilakra a szomszédos térképek eléréséhez.


METAR-TAF: